This is the latest recevied weather packets stored in our database for station/object IK2ILW-4. If no packets are shown the sender has not sent any weather packets the latest 10 day(s).
| Time | Temp. | Humidity | Pressure | Rain* | Wind** | Luminosity | Snow |
|---|---|---|---|---|---|---|---|
| 1777882354 | 12.22° C | 58% | 1020.2 hPa | 0 mm | - | 346 W/m² | - |
| 1777882050 | 12.22° C | 59% | 1020.2 hPa | 0 mm | - | 315 W/m² | - |
| 1777881770 | 12.22° C | 58% | 1020.2 hPa | 0 mm | - | 278 W/m² | - |
| 1777881465 | 12.22° C | 57% | 1020 hPa | 0 mm | - | 276 W/m² | - |
| 1777881161 | 12.22° C | 56% | 1020 hPa | 0 mm | - | 301 W/m² | - |
| 1777880861 | 12.22° C | 59% | 1020 hPa | 0 mm | - | 339 W/m² | - |
| 1777880560 | 12.22° C | 56% | 1019.9 hPa | 0 mm | - | 364 W/m² | - |
| 1777880256 | 12.22° C | 59% | 1019.9 hPa | 0 mm | - | 490 W/m² | - |
| 1777879972 | 12.22° C | 57% | 1019.9 hPa | 0 mm | - | 429 W/m² | - |
| 1777879668 | 12.78° C | 55% | 1019.8 hPa | 0 mm | - | 397 W/m² | - |
| 1777879367 | 13.33° C | 57% | 1019.8 hPa | 0 mm | - | 482 W/m² | - |
| 1777879066 | 12.78° C | 56% | 1019.8 hPa | 0 mm | - | 434 W/m² | - |
| 1777878765 | 12.78° C | 55% | 1018.9 hPa | 0 mm | - | 490 W/m² | - |
| 1777878464 | 12.22° C | 56% | 1018.9 hPa | 0 mm | - | 390 W/m² | - |
| 1777878160 | 11.67° C | 58% | 1018.9 hPa | 0 mm | - | 388 W/m² | - |
| 1777877856 | 11.11° C | 61% | 1018.9 hPa | 0 mm | - | 330 W/m² | - |
| 1777877571 | 10.56° C | 61% | 1018.9 hPa | 0 mm | - | 214 W/m² | - |
| 1777877266 | 10.56° C | 61% | 1018.9 hPa | 0 mm | - | 294 W/m² | - |
| 1777876958 | 10.56° C | 60% | 1019 hPa | 0 mm | - | 299 W/m² | - |
| 1777876657 | 11.11° C | 58% | 1019 hPa | 0 mm | - | 271 W/m² | - |
| 1777876353 | 11.11° C | 59% | 1019 hPa | 0 mm | - | 193 W/m² | - |
| 1777876073 | 11.11° C | 59% | 1018.9 hPa | 0 mm | - | 185 W/m² | - |
| 1777875769 | 10.56° C | 61% | 1018.9 hPa | 0 mm | - | 221 W/m² | - |
| 1777875464 | 10.56° C | 59% | 1018.9 hPa | 0 mm | - | 237 W/m² | - |
| 1777875160 | 10.56° C | 61% | 1019.7 hPa | 0 mm | - | 216 W/m² | - |
* Rain since midnight (hover to see other rain measurements)
** Current wind speed in m/s (hover to see current wind gust speed)